[[{"header":{"parameterUnit":"m.s-1","parameterCategory":1,"la1":30.2991,"la2":30.254,"lo1":-89.0895,"lo2":-89.0444,"dy":0.0017,"dx":0.0017,"nx":28,"ny":28,"refTime":"2024-07-16T09:00:00:Z","depth":0,"parameterNumber":2,"parameterNumberName":"U-component_of_WINDS"},"data":[0,0,0,0,0,0,0,0,0,0,0,0,0,0,0,0,0,0,0,0,0,0,0,0,0,0,0,0,0,0,0,0,0,0,0,0,0,0,0,0,0,0,0,0,0,0,0,0,0,0,0,0,0,0,0,0,0,0,2.9908,2.9908,0,2.9986,2.9987,2.9988,2.9959,2.9957,2.9955,2.9953,3.003,3.0034,3.0037,0,0,0,0,0,0,0,0,0,0,0,0,0,2.9726,2.9729,2.9907,2.9908,2.9909,2.9986,2.9987,2.9988,2.9959,2.9957,2.9955,2.9953,3.0029,3.0033,3.0038,0,0,0,0,0,0,0,0,0,0,0,0,0,2.9804,2.973,2.9907,2.9904,2.9905,2.9986,2.9987,2.9989,2.996,2.9957,2.9954,2.9952,3.0027,3.0033,3.0038,3.0126,0,0,3.0055,3.0058,0,0,0,0,0,0,0,0,2.98,2.9811,2.9904,2.9905,2.9905,2.996,2.9951,3.0035,2.996,2.9939,2.9953,2.995,3.0009,3.0016,3.0036,3.013,3.0133,3.0056,3.0059,3.0062,3.0063,0,0,0,0,0,0,0,2.9795,2.9808,2.9938,2.9905,2.9906,2.9897,2.9905,2.9967,2.9987,2.994,2.9938,2.9948,3.0009,3.0031,3.0038,3.0134,3.0056,3.0061,3.0064,3.0066,3.0299,3.0302,0,0,0,0,0,0,2.9789,2.9803,2.9936,2.9941,2.9845,2.9902,2.9912,2.9945,2.9987,2.9991,2.995,2.9947,3.0023,3.0031,3.004,3.0142,3.0061,3.0067,3.007,3.0296,3.03,3.0303,0,0,0,0,0,0,2.9786,2.9802,2.9933,2.9872,2.9888,2.9908,2.9946,2.9948,2.997,2.9995,2.9998,2.997,3.0021,3.0032,3.0104,3.0145,3.0069,3.0074,3.0293,3.0297,3.0301,3.035,0,0,0,0,0,0,2.9781,2.9801,2.9836,2.9873,2.9891,2.9997,2.9949,2.9952,2.998,2.9976,3.0014,3.0017,3.002,3.0096,3.011,3.0151,3.0079,3.0289,3.0295,3.03,3.0344,3.0355,3.0364,0,0,0,0,0,2.9774,2.9846,2.9838,2.9854,2.9936,3.0,3.001,3.0013,2.9984,3.0018,3.0033,3.0016,3.0139,3.0104,3.0119,3.0162,3.0287,3.0293,3.03,3.034,3.0353,3.0364,0,0,0,0,0,0,2.9812,2.9851,2.9842,2.9928,2.9961,2.9995,3.0038,3.0027,3.0068,3.0062,3.0062,3.0071,3.0144,3.0161,3.0121,3.0248,3.0208,3.0218,3.0234,3.0246,3.0256,3.0249,3.0083,0,0,0,0,0,2.9831,2.9881,2.9912,2.9985,3.0002,3.0017,3.0045,3.0045,3.0078,3.0092,3.0112,3.0144,3.0189,3.0219,3.0263,3.0348,3.0353,3.0385,3.0395,3.0403,3.041,3.0452,3.0465,3.0324,3.0324,3.0324,0,0,2.9869,2.9896,2.9928,2.9993,3.0018,3.0068,3.0029,3.0085,3.0121,3.01,3.0168,3.0184,3.0219,3.0297,3.0333,3.0313,3.0451,3.0411,3.0417,3.042,3.046,3.0473,3.0485,3.0328,3.0328,3.0327,0,0,2.9964,2.9992,3.0053,3.008,3.0119,3.0128,3.0143,3.0179,3.0188,3.0258,3.0242,3.0284,3.0364,3.0388,3.0411,3.0514,3.0498,3.0528,3.0578,3.0619,3.063,3.064,3.0673,3.0685,3.0536,3.0536,3.0536,0,3.0006,3.0082,3.0086,3.0142,3.017,3.0154,3.0215,3.024,3.0291,3.0309,3.0287,3.0384,3.0408,3.0489,3.0514,3.0534,3.0548,3.0522,3.0629,3.0639,3.0648,3.0679,3.0692,3.0539,3.0539,3.0538,3.0538,0,3.013,3.0183,3.0228,3.0278,3.0311,3.0369,3.038,3.0412,3.0409,3.0419,3.0488,3.0515,3.0562,3.0582,3.0579,3.0662,3.0649,3.0629,3.0588,3.0664,3.0693,3.0706,3.0544,3.0542,3.0542,3.0541,0,0,3.025,3.0301,3.0317,3.0338,3.0379,3.0419,3.0476,3.0522,3.0548,3.0584,3.0629,3.0696,3.0676,3.0702,3.0702,3.0739,3.0813,3.0713,3.0714,3.0727,3.0902,3.0914,3.0929,3.0804,3.0807,3.0808,3.0898,0,3.0345,3.0445,3.0449,3.054,3.0586,3.0572,3.062,3.065,3.0661,3.0701,3.0713,3.0759,3.0732,3.0747,3.0783,3.0796,3.0847,3.0791,3.0842,3.0844,3.0831,3.0944,3.0959,3.1041,3.0909,3.0911,3.0913,0,3.0469,3.0508,3.0603,3.0635,3.0655,3.0699,3.074,3.078,3.0812,3.0818,3.0846,3.084,3.0895,3.0855,3.0928,3.0889,3.0911,3.0921,3.0924,3.0926,3.0881,3.0946,3.1068,3.1079,3.0932,3.093,3.0929,0,3.0542,3.0619,3.0685,3.0704,3.0744,3.0774,3.0792,3.0822,3.0849,3.0885,3.0901,3.0944,3.0966,3.0997,3.1001,3.0973,3.1074,3.1036,3.1077,3.1077,3.1097,3.1095,3.122,3.1117,3.1117,3.1116,3.1116,0,3.0646,3.0703,3.0718,3.0758,3.0821,3.0825,3.0886,3.0902,3.0928,3.0968,3.0959,3.0997,3.1002,3.1041,3.1045,3.1103,3.1114,3.1117,3.1117,3.1116,3.1115,3.1128,3.1121,3.112,3.1119,3.1118,3.1118,0,3.0737,3.0749,3.0819,3.0851,3.0861,3.0905,3.0932,3.0969,3.0979,3.1031,3.1043,3.1059,3.1104,3.1112,3.1165,3.1167,3.1235,3.1231,3.1225,3.1223,3.1263,3.1257,3.1398,3.1415,3.1304,3.1305,3.1306,0,3.08,3.0844,3.0881,3.0908,3.0927,3.0972,3.0999,3.1004,3.1032,3.1071,3.1102,3.1146,3.1182,3.1254,3.1269,3.1308,3.1302,3.1349,3.1308,3.1305,3.1298,3.1294,3.1297,3.1356,3.1357,3.1358,3.1359,0,3.0911,3.0914,3.0955,3.0997,3.103,3.1063,3.1094,3.1117,3.1125,3.1157,3.1203,3.1231,3.1285,3.1327,3.1366,3.1382,3.1371,3.1372,3.1383,3.1381,3.1374,3.1374,3.1242,3.1368,3.1367,3.1366,3.1366,3.1365,3.0987,3.1024,3.1055,3.11,3.1124,3.1153,3.1188,3.1203,3.1242,3.1287,3.1287,3.1337,3.1365,3.1416,3.1435,3.1472,3.1457,3.1474,3.1477,3.1481,3.1482,3.1371,3.148,3.1479,3.1479,3.1479,3.1479,0,3.1093,3.1113,3.1154,3.1198,3.1232,3.1221,3.1254,3.1282,3.1327,3.1355,3.1389,3.1441,3.1481,3.15,3.1539,3.1565,3.1561,3.1575,3.1571,3.1574,3.1496,3.148,3.1578,3.1578,3.1578,3.1578,3.1578,3.1578,3.1153,3.1213,3.122,3.1292,3.131,3.1359,3.1379,3.1404,3.1426,3.1484,3.1518,3.1531,3.1554,3.1594,3.163,3.1634,3.1648,3.1664,3.1665,3.1591,3.158,3.1571,3.1556,3.1668,3.1668,3.174,3.1741,3.1741]},{"header":{"parameterUnit":"m.s-1","parameterCategory":1,"la1":30.2991,"la2":30.254,"lo1":-89.0895,"lo2":-89.0444,"dy":0.0017,"dx":0.0017,"nx":28,"ny":28,"refTime":"2024-07-16T09:00:00:Z","depth":0,"parameterNumber":3,"parameterNumberName":"V-component_of_WINDS"},"data":[0,0,0,0,0,0,0,0,0,0,0,0,0,0,0,0,0,0,0,0,0,0,0,0,0,0,0,0,0,0,0,0,0,0,0,0,0,0,0,0,0,0,0,0,0,0,0,0,0,0,0,0,0,0,0,0,0,0,1.2786,1.2787,0,1.2932,1.2933,1.2935,1.2947,1.2946,1.2944,1.2943,1.3096,1.3102,1.3107,0,0,0,0,0,0,0,0,0,0,0,0,0,1.2519,1.2524,1.2785,1.2787,1.2789,1.2932,1.2934,1.2936,1.2948,1.2946,1.2944,1.2942,1.3094,1.3101,1.3108,0,0,0,0,0,0,0,0,0,0,0,0,0,1.2647,1.2526,1.2785,1.2812,1.2816,1.2931,1.2934,1.2936,1.2948,1.2946,1.2943,1.2941,1.3092,1.31,1.3109,1.3208,0,0,1.3134,1.3138,0,0,0,0,0,0,0,0,1.264,1.2657,1.2806,1.2811,1.2815,1.2919,1.2896,1.3027,1.2949,1.2898,1.2943,1.294,1.3039,1.3052,1.3085,1.3215,1.3222,1.3135,1.314,1.3143,1.3146,0,0,0,0,0,0,0,1.2631,1.2651,1.2844,1.2809,1.2814,1.2818,1.2833,1.2921,1.298,1.2902,1.2903,1.292,1.3041,1.3077,1.3088,1.3224,1.3135,1.3142,1.3147,1.315,1.3442,1.3444,0,0,0,0,0,0,1.2617,1.2643,1.2839,1.2848,1.272,1.2824,1.2842,1.2888,1.2979,1.2991,1.2922,1.292,1.3063,1.3079,1.3094,1.3216,1.3143,1.3151,1.3156,1.3439,1.3442,1.3445,0,0,0,0,0,0,1.2611,1.2634,1.2833,1.2746,1.2772,1.2832,1.2883,1.2892,1.2927,1.2994,1.3005,1.2947,1.3062,1.3082,1.3179,1.3221,1.3155,1.3163,1.3436,1.344,1.3444,1.346,0,0,0,0,0,0,1.2603,1.2632,1.267,1.2747,1.2776,1.2915,1.2886,1.2897,1.2941,1.294,1.3021,1.3032,1.3062,1.3166,1.3187,1.3231,1.3169,1.3432,1.3438,1.3442,1.3456,1.3464,1.3471,0,0,0,0,0,1.2594,1.267,1.2672,1.2695,1.2825,1.2917,1.2934,1.2966,1.2945,1.2984,1.3026,1.3029,1.3213,1.3176,1.32,1.3247,1.343,1.3436,1.3442,1.3453,1.3462,1.3471,0,0,0,0,0,0,1.2598,1.268,1.2683,1.2787,1.2845,1.2919,1.297,1.2976,1.3042,1.3039,1.3076,1.3094,1.319,1.3228,1.3186,1.3347,1.3319,1.333,1.3319,1.3329,1.3336,1.3326,1.3176,0,0,0,0,0,1.2611,1.2678,1.2747,1.2831,1.286,1.2909,1.2951,1.297,1.3032,1.3058,1.3108,1.3169,1.324,1.3286,1.3356,1.3461,1.3479,1.3505,1.3512,1.3518,1.3528,1.3585,1.3598,1.3465,1.3465,1.3465,0,0,1.2639,1.2692,1.2733,1.2833,1.2881,1.295,1.293,1.3005,1.3057,1.307,1.3163,1.3202,1.3273,1.3374,1.3421,1.3409,1.3568,1.3526,1.353,1.3537,1.3593,1.3606,1.3617,1.3469,1.3469,1.3468,0,0,1.2725,1.2772,1.2846,1.2893,1.2964,1.2996,1.3014,1.3088,1.3113,1.3207,1.3217,1.328,1.3402,1.3452,1.3493,1.3595,1.36,1.3617,1.3657,1.3712,1.3723,1.3732,1.3769,1.3781,1.3626,1.3626,1.3626,0,1.2751,1.2855,1.2885,1.2959,1.3003,1.3014,1.3091,1.3135,1.3226,1.3256,1.3241,1.3393,1.3442,1.3554,1.3578,1.3611,1.3633,1.3608,1.3719,1.3728,1.3738,1.3773,1.3786,1.3627,1.3627,1.3627,1.3627,0,1.2883,1.2955,1.3007,1.3092,1.3142,1.3217,1.3258,1.3305,1.3319,1.3353,1.3448,1.3506,1.3587,1.3615,1.363,1.3729,1.3719,1.3711,1.3683,1.3751,1.3785,1.3799,1.3629,1.3629,1.3628,1.3628,0,0,1.2979,1.3077,1.3096,1.3134,1.3212,1.3268,1.3343,1.342,1.346,1.3521,1.3585,1.3687,1.3679,1.3726,1.3746,1.3795,1.3871,1.3781,1.3783,1.3796,1.3983,1.399,1.4005,1.3874,1.3877,1.3879,1.3978,0,1.3074,1.3206,1.3234,1.3349,1.3416,1.3426,1.3492,1.3547,1.358,1.3641,1.3678,1.3749,1.3733,1.3762,1.381,1.3852,1.391,1.3845,1.3935,1.3938,1.3918,1.4023,1.403,1.412,1.3991,1.3993,1.3995,0,1.3203,1.3265,1.3386,1.3453,1.3483,1.3541,1.3613,1.3671,1.3734,1.3754,1.3805,1.382,1.3898,1.3865,1.3974,1.393,1.3968,1.3994,1.3998,1.4009,1.3971,1.4036,1.415,1.4163,1.4016,1.4014,1.4013,0,1.3261,1.3375,1.3462,1.3494,1.3575,1.3615,1.3651,1.371,1.3754,1.3818,1.3847,1.3918,1.3958,1.4014,1.4048,1.4021,1.4154,1.4124,1.4173,1.4173,1.4202,1.42,1.4324,1.4225,1.4225,1.4225,1.4225,0,1.3365,1.3438,1.3488,1.3542,1.3624,1.3655,1.3736,1.3772,1.3824,1.3885,1.3899,1.3956,1.3997,1.406,1.4087,1.4173,1.4191,1.421,1.4216,1.4209,1.4207,1.4236,1.4231,1.4229,1.4228,1.4227,1.4226,0,1.3444,1.348,1.3575,1.3643,1.3661,1.3719,1.3777,1.383,1.3862,1.3939,1.3958,1.4009,1.4084,1.4122,1.4216,1.4234,1.433,1.4333,1.4309,1.4312,1.4359,1.4354,1.4507,1.4528,1.4414,1.4415,1.4416,0,1.3508,1.3564,1.3637,1.3678,1.3714,1.378,1.3824,1.3856,1.3902,1.3976,1.4019,1.4094,1.4155,1.4274,1.432,1.4391,1.4396,1.4444,1.4407,1.4397,1.4397,1.4393,1.4399,1.4451,1.4452,1.4453,1.4454,0,1.3618,1.3633,1.3695,1.3764,1.3815,1.3871,1.3927,1.396,1.4,1.4051,1.4126,1.4174,1.4268,1.4342,1.4416,1.4454,1.4461,1.4465,1.448,1.4474,1.4458,1.4467,1.4328,1.4462,1.4461,1.446,1.446,1.446,1.3692,1.3742,1.3801,1.387,1.3914,1.3964,1.4016,1.4054,1.4117,1.4195,1.421,1.4289,1.4349,1.4449,1.4488,1.4552,1.4542,1.4564,1.457,1.4575,1.4577,1.4446,1.4565,1.4565,1.4565,1.4565,1.4565,0,1.3803,1.384,1.3903,1.3979,1.4033,1.4032,1.4093,1.4138,1.4208,1.4262,1.4321,1.4407,1.4479,1.4529,1.4601,1.4642,1.4647,1.466,1.4658,1.4667,1.4582,1.4561,1.4655,1.4655,1.4655,1.4655,1.4655,1.4655,1.3867,1.3952,1.3973,1.4079,1.4117,1.4193,1.4228,1.4275,1.4318,1.4413,1.4471,1.4503,1.4555,1.4631,1.4697,1.471,1.4736,1.4749,1.4762,1.4682,1.4673,1.4664,1.4645,1.4754,1.4754,1.4842,1.4843,1.4843]}]]